1,427,530개(14061/71377페이지)
LECTURE
번호 제목 글쓴이 조회 날짜
1146330 Kết Quả Bóng Đá Hôm Nay BakerTempleton8944 4 2022.03.30 14:16
1146329 What type of leather should you choose b LewisHeller7835 4 2022.03.30 14:16
1146328 Adriamycin-Induced Suffering from diabet JohansenDavidson8939 3 2022.03.30 14:16
1146327 The Work At Home Lifestyle SchneiderMoss4492 2 2022.03.30 14:16
1146326 Art City Vets & Urgent Care has been HelmsBrinch9830 5 2022.03.30 14:16
1146325 Dheeraj Bojwani Consultants in India off BuckGreenwood6231 2 2022.03.30 14:16
1146324 Wondering Where To Start As A Feline Pro LeonHolcomb5578 2 2022.03.30 14:15
1146323 Cermati Ini Sebelumnya Memasangkan Taruh 사진 DwyerAgger3315 2 2022.03.30 14:15
1146322 PIK-5 as well as fenretinide synergize i AlbrechtsenWood7656 3 2022.03.30 14:15
1146321 Diagnostic immobilier maison prix : Tout LuBruce8655 3 2022.03.30 14:15
1146320 Faire un diagnostic immobilier : Toutes BurtonLaursen1605 3 2022.03.30 14:15
1146319 Make sure that you have enough time on y MosleySchulz0721 4 2022.03.30 14:15
1146318 How To Window Handle Repair Near Me In E 사진 WynnAagesen5224 1 2022.03.30 14:15
1146317 It is not only the exterior of the build VaughnGaines5620 3 2022.03.30 14:15
1146316 Razz Poker Love It Or Hate It OrtizMcGraw8243 4 2022.03.30 14:15
1146315 Spesifikasi Live Chat Slots Online Berik CochraneConway7894 2 2022.03.30 14:15
1146314 Emanet Turkish123 - Watch Emanet Episode BundgaardRobertson6608 5 2022.03.30 14:15
1146313 Top 9 Lessons About CBD Vape Oil UK To L NedergaardMcGinnis8667 3 2022.03.30 14:14
1146312 Barbaroslar - Turkish123 HolmbergChavez6269 3 2022.03.30 14:14
1146311 Utamanya Menunjuk Kontent Slots Online T 사진 EverettAnderson8803 4 2022.03.30 14:14